Regional Weather Roundup
Issued by NWS

Home | Current Version | Previous Version | Text Only | Print | Product List | Glossary On
Versions: 1 2 3 4 5 6 7 8 9 10 11 12 13 14 15 16 17 18 19 20 21 22 23 24 25 26 27 28 29 30 31 32 33 34 35 36 37 38 39 40 41 42 43 44 45 46 47 48 49 50
000
ASUS43 KDTX 021210
RWRMI
MICHIGAN HOURLY REGIONAL WEATHER ROUNDUP
NATIONAL WEATHER SERVICE DETROIT/PONTIAC MI
700 AM EST MON MAR 02 2015

NOTE: "FAIR" INDICATES FEW OR NO CLOUDS BELOW 12,000 FEET WITH NO
SIGNIFICANT WEATHER AND/OR OBSTRUCTION TO VISIBILITY.

MIZ047>049-052>055-059>063-066>070-074>076-081>083-021300-
SOUTHEAST LOWER MICHIGAN

CITY           SKY/WX    TMP DP  RH WIND       PRES   REMARKS
ADRIAN         CLEAR     16  12  84 W6        30.38R
6HR MIN TEMP:  16; 6HR MAX TEMP:  24;

ALMA           CLEAR     16  10  75 W7        30.34R
ANN ARBOR      PTCLDY    19  10  68 W9        30.35R
BAD AXE        CLEAR     17  11  76 W9G17     30.28R
DETROIT CITY   CLEAR     23  12  62 W7        30.34R
6HR MIN TEMP:  23; 6HR MAX TEMP:  26; 6HR PCP: TRACE;

DETROIT        MOCLDY    22  13  68 W7        30.36R
6HR MIN TEMP:  22; 6HR MAX TEMP:  25; 6HR PCP: TRACE;

FLINT            N/A     18   9  68 W13       30.33R
6HR MIN TEMP:  18; 6HR MAX TEMP:  25; 6HR PCP: TRACE;

GROSSE ILE     PTCLDY    19  16  86 W3        30.34R
HILLSDALE      CLEAR     15  11  81 W7        30.34R
6HR MIN TEMP:  15; 6HR MAX TEMP:  22;

HOWELL         CLEAR     17   8  70 W7        30.33R
6HR MIN TEMP:  17; 6HR MAX TEMP:  23;


CITY           SKY/WX    TMP DP  RH WIND       PRES   REMARKS
JACKSON        PTCLDY    15   8  73 W7        30.35R
6HR MIN TEMP:  15; 6HR MAX TEMP:  22; 6HR PCP: TRACE;

LAMBERTVILLE   CLEAR     18  14  86 W5        30.39R
LANSING        CLEAR     18   8  65 W8        30.35R
6HR MIN TEMP:  17; 6HR MAX TEMP:  23; 6HR PCP: TRACE;

LAPEER         NOT AVBL
MASON          PTCLDY    17   9  72 W3        30.34R
MONROE         PTCLDY    16  12  86 W7        30.36R
MT. CLEMENS    CLEAR     21  11  65 W8        30.31R
6HR MIN TEMP:  21; 6HR MAX TEMP:  24; 6HR PCP: TRACE;

PONTIAC        CLEAR     18  10  71 W14       30.30R
6HR MIN TEMP:  18; 6HR MAX TEMP:  22; 6HR PCP: TRACE;

PORT HOPE        N/A     21  11  65 W13G23    30.25R
6HR MIN TEMP:  19; 6HR MAX TEMP:  24; 6HR PCP:  0.01;

PORT HURON     CLEAR     19  12  73 W6        30.31R
TRI CITIES     CLEAR     14   6  70 W8        30.32R
6HR MIN TEMP:  14; 6HR MAX TEMP:  25; 6HR PCP: TRACE;

YPSILANTI      PTCLDY    22  11  62 NW7       30.35R
6HR MIN TEMP:  22; 6HR MAX TEMP:  26; 6HR PCP: TRACE;

$$
MIZ043>046-050>051-056>058-064>065-071>073-077>080-021300-
SOUTHWEST LOWER MICHIGAN

CITY           SKY/WX    TMP DP  RH WIND       PRES   REMARKS
BATTLE CREEK   CLEAR     16   8  71 W7        30.37R
6HR MIN TEMP:  15; 6HR MAX TEMP:  24; 6HR PCP: TRACE;

BENTON HARBOR  PTCLDY    21  15  78 NW8       30.41R
6HR MIN TEMP:  20; 6HR MAX TEMP:  23;

BIG RAPIDS     MOCLDY    16  11  81 W7        30.32R
6HR MIN TEMP:  16; 6HR MAX TEMP:  23;

COLDWATER      PTCLDY    11   6  79 SW5       30.38R
6HR MIN TEMP:  11; 6HR MAX TEMP:  22;

HOLLAND        PTCLDY    23  14  68 W6        30.39R
6HR MIN TEMP:  23; 6HR MAX TEMP:  27;

GRAND RAPIDS   PTCLDY    16   9  74 W7        30.37R
6HR MIN TEMP:  15; 6HR MAX TEMP:  24; 6HR PCP: TRACE;

KALAMAZOO      PTCLDY    17  10  74 W6        30.38R
6HR MIN TEMP:  17; 6HR MAX TEMP:  24;

MARSHALL       CLEAR     12   6  79 W3        30.36R
MUSKEGON       CLEAR     23  13  65 NW8       30.38R
6HR MIN TEMP:  23; 6HR MAX TEMP:  25;

$$
MIZ016>042-021300-
NORTHERN LOWER MICHIGAN

CITY           SKY/WX    TMP DP  RH WIND       PRES   REMARKS
ALPENA         CLEAR     18   9  68 W8G18     30.24R
6HR MIN TEMP:  17; 6HR MAX TEMP:  22; 6HR PCP: TRACE;

BEAVER ISLAND  CLEAR     15   8  74 W6        30.30R
6HR MIN TEMP:  15; 6HR MAX TEMP:  20;

BELLAIRE       CLOUDY    19   9  63 W7        30.32R
6HR MIN TEMP:  19; 6HR MAX TEMP:  22;

CADILLAC       LGT SNOW  18  13  80 W6        30.26R
CHARLEVOIX     CLOUDY    17  10  74 W14G20    30.33R
FRANKFORT      CLOUDY    22  11  64 NW13G18   30.35R
GAYLORD        CLOUDY    15  10  80 NW6       30.23R
6HR MIN TEMP:  15; 6HR MAX TEMP:  17; 6HR PCP: TRACE;

GRAYLING       CLOUDY    18  10  71 NW9G17    30.26R
6HR MIN TEMP:  14; 6HR MAX TEMP:  18;

HARBOR SPRINGS PTCLDY    15  10  83 CALM      30.28R
HOUGHTON LAKE  PTCLDY    14   7  73 W7        30.26R
6HR MIN TEMP:  12; 6HR MAX TEMP:  19;

MANISTEE       CLOUDY    23   9  54 NW12G17   30.36R
OSCODA         CLEAR     14   8  79 W6        30.26R
PELLSTON       PTCLDY    14   5  67 W10       30.28R
6HR MIN TEMP:  14; 6HR MAX TEMP:  21;

TRAVERSE CITY  FLURRIES  21  10  62 NW16      30.31R
6HR MIN TEMP:  18; 6HR MAX TEMP:  22; 6HR PCP: TRACE;

$$
MIZ007>008-015-021300-
EASTERN UPPER MICHIGAN

CITY           SKY/WX    TMP DP  RH WIND       PRES   REMARKS
KINROSS        PTCLDY    14  10  85 W9        30.21R
6HR MIN TEMP:  14; 6HR MAX TEMP:  18;

MACKINAC ISLAN CLEAR     14   8  76 W14       30.25R WCI  -1
NEWBERRY       CLOUDY    15  10  81 W9        30.24R
6HR MIN TEMP:  15; 6HR MAX TEMP:  19;

S. S. MARIE    CLEAR     15   5  64 NW12G22   30.20R
6HR MIN TEMP:  15; 6HR MAX TEMP:  20; 6HR PCP: TRACE;

$$
MIZ004>006-011>014-085-021300-
CENTRAL UPPER MICHIGAN

CITY           SKY/WX    TMP DP  RH WIND       PRES   REMARKS
MANISTIQUE     FLURRIES  15  12  88 W8        30.30R
ESCANABA       CLEAR      7   5  92 W7        30.36R
6HR MIN TEMP:   7; 6HR MAX TEMP:  16;

MENOMINEE      CLEAR     10   5  79 CALM      30.37R
6HR MIN TEMP:  10; 6HR MAX TEMP:  18;

SAWYER-GWINN   CLEAR     10   1  67 NW8       30.26R
$$
MIZ001>003-009>011-084-021300-
WESTERN UPPER MICHIGAN

CITY           SKY/WX    TMP DP  RH WIND       PRES   REMARKS
IRON MOUNTAIN  PTCLDY    12   4  70 W3        30.31R
6HR MIN TEMP:  12; 6HR MAX TEMP:  16; 6HR PCP: TRACE;

HOUGHTON       CLEAR     11   1  64 NW13      30.28R WCI  -4
6HR MIN TEMP:  10; 6HR MAX TEMP:  16;

COPPER HARBOR    N/A     13   4  67 N15       30.29R WCI  -3
6HR MIN TEMP:  13; 6HR MAX TEMP:  19;

IRONWOOD       CLOUDY    10  10 100 SW10      30.33R WCI  -3
6HR MIN TEMP:  10; 6HR MAX TEMP:  18;

$$

ABBREVIATIONS USED IN REMARKS
   TC - TEMPERATURE IN CELSIUS
  WCI - WIND CHILL INDEX
   HX - HEAT INDEX
  VSB - VISIBILITY



USA.gov is the U.S. government's official web portal to all federal, state and local government web resources and services.